Home > Weather > Melk > Past weeks

Flag for Austria Weather for the Past 2 Weeks in Melk, Lower Austria, Austria

Now
38 °F

Chilly.


Feels Like: 38 °F
Forecast: 36 / 43 °F
Wind: 2 mph from West

Location: Amstetten

Current Time: Feb 14, 2016 at 10:49:47 PM

Latest Report: Feb 14, 2016 at 9:00 PM


Visibility: N/A

Pressure: 29.35 "Hg

Humidity: 94%

Dew point: 36 °F

Location of MelkLocation

Historic Weather in Melk — Graph

°F

Melk Temperature Yesterday

Maximum temperature yesterday: 45 °F (at 3:00 PM)
Minimum temperature yesterday: 30 °F (at 2:00 AM)
Average temperature yesterday: 37 °F

High & Low Weather Summary for the Past Weeks

 TemperatureHumidityPressure
High57 °F (Feb 9, 3:00 PM)100% (Jan 30, 9:00 PM)30.43 "Hg (Jan 30, 9:00 PM)
Low24 °F (Feb 12, 7:00 AM)55% (Feb 9, 5:00 PM)29.23 "Hg (Feb 14, 5:00 PM)
Average40 °F85%29.87 "Hg
* Reported Jan 30 9:00 PM — Feb 14 9:00 PM, Melk, Weather by CustomWeather, © 2016

Note: Actual official high and low records may vary slightly from our data, if they occured in-between our weather recording intervals... More about our weather records

Advertising

Melk Weather History for the Previous 24 Hours

 ConditionsComfort  
Time TempWeatherWind HumidityBarometerVisibility
9:00 PM
Sun, Feb 14
38 °FChilly.2 mph94%29.35 "HgN/A
8:00 PM40 °FChilly.1 mph90%29.29 "HgN/A
7:00 PM40 °FQuite cool.3 mph89%29.26 "HgN/A
6:00 PM40 °FQuite cool.5 mph89%29.26 "HgN/A
5:00 PM40 °FQuite cool.5 mph86%29.23 "HgN/A
4:00 PM40 °FQuite cool.3 mph93%29.26 "HgN/A
3:00 PM40 °FChilly.5 mph92%29.26 "HgN/A
2:00 PM38 °FChilly.5 mph95%29.26 "HgN/A
1:00 PM35 °FChilly.3 mph100%29.29 "HgN/A
12:00 PM33 °FChilly.3 mph100%29.29 "HgN/A
11:00 AM32 °FChilly.No wind98%29.32 "HgN/A
10:00 AM31 °FChilly.1 mph100%29.32 "HgN/A
9:00 AM31 °FChilly.3 mph100%29.32 "HgN/A
8:00 AM31 °FChilly.3 mph100%29.35 "HgN/A
7:00 AM31 °FChilly.3 mph100%29.35 "HgN/A
6:00 AM29 °FChilly.2 mph100%29.35 "HgN/A
4:00 AM30 °FChilly.2 mph100%29.32 "HgN/A
2:00 AM32 °FChilly.1 mph100%29.32 "HgN/A
1:00 AM31 °FChilly.2 mph98%29.32 "HgN/A
Weather by CustomWeather, © 2016

See weather overviewHow to use our weather pages